Вернуться в каталог

STARLINK-36901

АктивенСвязьSSO
NORAD 67974·PAYLOAD·🇺🇸 United States

Запущен Feb 25, 2026 с Vandenberg Space Force Base

Loading…

Ближайшие Пролёты (ближайшие 24 часа)

TLE

СвежийSource: CelesTrak SupGP

Эпоха: Sep 15, 2026, 04:20 UTC

1 67974C 26038P   26258.18104167 -.00060205  00000+0 -18694-2 0  2585
2 67974  97.2845 266.6068 0001638  91.2680  98.1297 15.33460166    10

Отслеживайте STARLINK-36901 в реальном времени с AllMySat

Download on the App Store